Home   Weather   Witten   Past weeks

Flag for Germany Past Weather in Witten, North Rhine-Westphalia, Germany — Yesterday and Last 2 Weeks

Now
66 °F

Passing clouds.


Feels Like: 66 °F
Forecast: 60 / 69 °F
Wind: 7 mph from Southeast

Location: Dortmund / Wickede

Current Time: Jul 22, 2017 at 9:06:00 am

Latest Report: Jul 22, 2017 at 8:20 am


Visibility: N/A

Pressure: 29.86 "Hg

Humidity: 78%

Dew Point: 59 °F

Location of WittenLocation

Past Weather in Witten — Graph

°F

Witten Temperature Yesterday

Maximum temperature yesterday: 75 °F (at 3:50 pm)
Minimum temperature yesterday: 52 °F (at 5:50 am)
Average temperature yesterday: 67 °F

High & Low Weather Summary for the Past Weeks

 TemperatureHumidityPressure
High90 °F (Jul 19, 2:50 pm)94% (Jul 10, 7:20 am)30.21 "Hg (Jul 10, 7:20 am)
Low45 °F (Jul 13, 5:20 am)29% (Jul 19, 2:50 pm)29.68 "Hg (Jul 12, 1:20 pm)
Average67 °F63%29.98 "Hg
* Reported Jul 7 7:20 am — Jul 22 7:20 am, Witten. Weather by CustomWeather, © 2017

Note: Actual official high and low records may vary slightly from our data, if they occured in-between our weather recording intervals... More about our weather records

Advertising

Witten Weather History for the Previous 24 Hours

Scroll right to see more
 ConditionsComfort  
Time TempWeatherWind HumidityBarometerVisibility
7:20 am
Sat, Jul 22
63 °FSunny.2 mph88%29.86 "Hg10 mi
6:20 am63 °FLight rain. Clear.6 mph83%29.86 "HgN/A
5:50 am63 °FLight rain. Clear.8 mph83%29.86 "HgN/A
5:20 am63 °FLight rain. Clear.6 mph83%29.89 "HgN/A
9:50 pm
Fri, Jul 21
66 °FClear.6 mph56%29.86 "Hg10 mi
9:20 pm68 °FPassing clouds.6 mph53%29.86 "HgN/A
8:50 pm70 °FSunny.8 mph50%29.86 "Hg10 mi
8:20 pm72 °FSunny.9 mph44%29.86 "Hg10 mi
7:50 pm73 °FSunny.8 mph41%29.86 "Hg10 mi
7:20 pm75 °FPassing clouds.5 mph31%29.86 "HgN/A
6:50 pm75 °FSunny.3 mph29%29.86 "Hg10 mi
6:20 pm75 °FSunny.3 mph34%29.89 "Hg10 mi
5:50 pm75 °FPassing clouds.5 mph34%29.89 "HgN/A
5:20 pm75 °FSunny.3 mph34%29.89 "Hg10 mi
4:50 pm73 °FSunny.3 mph38%29.89 "Hg10 mi
4:20 pm75 °FSunny.3 mph34%29.92 "Hg10 mi
3:50 pm75 °FSunny.5 mph36%29.92 "Hg10 mi
3:20 pm73 °FSunny.3 mph38%29.92 "Hg10 mi
2:50 pm72 °FSunny.5 mph41%29.95 "Hg10 mi
2:20 pm72 °FPassing clouds.5 mph36%29.95 "HgN/A
1:50 pm70 °FSunny.5 mph38%29.95 "Hg10 mi
12:50 pm70 °FSunny.3 mph38%29.98 "Hg10 mi
12:20 pm70 °FPassing clouds.6 mph40%29.98 "HgN/A
11:50 am68 °FSunny.6 mph43%29.98 "Hg10 mi
11:20 am68 °FSunny.2 mph46%29.98 "Hg10 mi
10:50 am64 °FSunny.3 mph49%29.98 "Hg10 mi
10:20 am64 °FSunny.2 mph46%29.98 "Hg10 mi
9:50 am63 °FPassing clouds.5 mph49%29.98 "HgN/A
9:20 am61 °FSunny.7 mph52%30.01 "Hg10 mi
Weather by CustomWeather, © 2017

See weather overviewHow to use our weather pages